Year,Month,Day,Hour,Minute,Value (Times are PST for temperature in C)
2007,03,19,00,00,10.10
2007,03,19,00,01,10.10
2007,03,19,00,02,10.10
2007,03,19,00,03,10.10
2007,03,19,00,04,10.10
2007,03,19,00,05,10.10
2007,03,19,00,06,10.10
2007,03,19,00,07,10.10
2007,03,19,00,08,10.10
2007,03,19,00,09,10.10
2007,03,19,00,10,10.10
2007,03,19,00,11,10.10
2007,03,19,00,12,10.10
2007,03,19,00,13,10.10
2007,03,19,00,14,10.10
2007,03,19,00,15,10.10
2007,03,19,00,16,10.10
2007,03,19,00,17,10.10
2007,03,19,00,18,10.10
2007,03,19,00,19,10.10
2007,03,19,00,20,10.10
2007,03,19,00,21,10.10
2007,03,19,00,22,10.10
2007,03,19,00,23,10.20
2007,03,19,00,24,10.20
2007,03,19,00,25,10.20
2007,03,19,00,26,10.20
2007,03,19,00,27,10.20
2007,03,19,00,28,10.20
2007,03,19,00,29,10.20
2007,03,19,00,30,10.20
2007,03,19,00,31,10.20
2007,03,19,00,32,10.20
2007,03,19,00,33,10.20
2007,03,19,00,34,10.20
2007,03,19,00,35,10.20
2007,03,19,00,36,10.30
2007,03,19,00,37,10.30
2007,03,19,00,38,10.30
2007,03,19,00,39,10.30
2007,03,19,00,40,10.30
2007,03,19,00,41,10.30
2007,03,19,00,42,10.30
2007,03,19,00,43,10.30
2007,03,19,00,44,10.30
2007,03,19,00,45,10.30
2007,03,19,00,46,10.30
2007,03,19,00,47,10.40
2007,03,19,00,48,10.40
2007,03,19,00,49,10.40
2007,03,19,00,50,10.40
2007,03,19,00,51,10.40
2007,03,19,00,52,10.40
2007,03,19,00,53,10.40
2007,03,19,00,54,10.40
2007,03,19,00,55,10.40
2007,03,19,00,56,10.40
2007,03,19,00,57,10.40
2007,03,19,00,58,10.40
2007,03,19,00,59,10.40
2007,03,19,01,00,10.40
2007,03,19,01,01,10.40
2007,03,19,01,02,10.40
2007,03,19,01,03,10.40
2007,03,19,01,04,10.40
2007,03,19,01,05,10.40
2007,03,19,01,06,10.40
2007,03,19,01,07,10.40
2007,03,19,01,08,10.40
2007,03,19,01,09,10.40
2007,03,19,01,10,10.40
2007,03,19,01,11,10.40
2007,03,19,01,12,10.40
2007,03,19,01,13,10.40
2007,03,19,01,14,10.40
2007,03,19,01,15,10.40
2007,03,19,01,16,10.40
2007,03,19,01,17,10.40
2007,03,19,01,18,10.40
2007,03,19,01,19,10.40
2007,03,19,01,20,10.40
2007,03,19,01,21,10.40
2007,03,19,01,22,10.40
2007,03,19,01,23,10.40
2007,03,19,01,24,10.40
2007,03,19,01,25,10.40
2007,03,19,01,26,10.40
2007,03,19,01,27,10.40
2007,03,19,01,28,10.40
2007,03,19,01,29,10.40
2007,03,19,01,30,10.40
2007,03,19,01,31,10.40
2007,03,19,01,32,10.40
2007,03,19,01,33,10.40
2007,03,19,01,34,10.40
2007,03,19,01,35,10.40
2007,03,19,01,36,10.40
2007,03,19,01,37,10.40
2007,03,19,01,38,10.40
2007,03,19,01,39,10.40
2007,03,19,01,40,10.40
2007,03,19,01,41,10.40
2007,03,19,01,42,10.30
2007,03,19,01,43,10.30
2007,03,19,01,44,10.30
2007,03,19,01,45,10.30
2007,03,19,01,46,10.30
2007,03,19,01,47,10.30
2007,03,19,01,48,10.30
2007,03,19,01,49,10.30
2007,03,19,01,50,10.30
2007,03,19,01,51,10.30
2007,03,19,01,52,10.30
2007,03,19,01,53,10.30
2007,03,19,01,54,10.30
2007,03,19,01,55,10.20
2007,03,19,01,56,10.20
2007,03,19,01,57,10.20
2007,03,19,01,58,10.20
2007,03,19,01,59,10.20
2007,03,19,02,00,10.20
2007,03,19,02,01,10.20
2007,03,19,02,02,10.20
2007,03,19,02,03,10.20
2007,03,19,02,04,10.20
2007,03,19,02,05,10.20
2007,03,19,02,06,10.10
2007,03,19,02,07,10.10
2007,03,19,02,08,10.10
2007,03,19,02,09,10.10
2007,03,19,02,10,10.10
2007,03,19,02,11,10.10
2007,03,19,02,12,10.10
2007,03,19,02,13,10.10
2007,03,19,02,14,10.10
2007,03,19,02,15,10.10
2007,03,19,02,16,10.10
2007,03,19,02,17,10.10
2007,03,19,02,18,10.10
2007,03,19,02,19,10.10
2007,03,19,02,20,10.10
2007,03,19,02,21,10.10
2007,03,19,02,22,10.10
2007,03,19,02,23,10.10
2007,03,19,02,24,10.10
2007,03,19,02,25,10.10
2007,03,19,02,26,10.10
2007,03,19,02,27,10.10
2007,03,19,02,28,10.00
2007,03,19,02,29,9.90
2007,03,19,02,30,9.90
2007,03,19,02,31,9.90
2007,03,19,02,32,9.90
2007,03,19,02,33,9.90
2007,03,19,02,34,9.90
2007,03,19,02,35,9.90
2007,03,19,02,36,9.90
2007,03,19,02,37,9.90
2007,03,19,02,38,9.90
2007,03,19,02,39,9.90
2007,03,19,02,40,9.90
2007,03,19,02,41,9.90
2007,03,19,02,42,9.90
2007,03,19,02,43,9.90
2007,03,19,02,44,9.90
2007,03,19,02,45,9.90
2007,03,19,02,46,9.90
2007,03,19,02,47,9.90
2007,03,19,02,48,9.80
2007,03,19,02,49,9.80
2007,03,19,02,50,9.80
2007,03,19,02,51,9.80
2007,03,19,02,52,9.80
2007,03,19,02,53,9.80
2007,03,19,02,54,9.80
2007,03,19,02,55,9.80
2007,03,19,02,56,9.80
2007,03,19,02,57,9.80
2007,03,19,02,58,9.80
2007,03,19,02,59,9.80
2007,03,19,03,00,9.70
2007,03,19,03,01,9.70
2007,03,19,03,02,9.70
2007,03,19,03,03,9.70
2007,03,19,03,04,9.70
2007,03,19,03,05,9.70
2007,03,19,03,06,9.70
2007,03,19,03,07,9.70
2007,03,19,03,08,9.70
2007,03,19,03,09,9.70
2007,03,19,03,10,9.70
2007,03,19,03,11,9.70
2007,03,19,03,12,9.70
2007,03,19,03,13,9.70
2007,03,19,03,14,9.70
2007,03,19,03,15,9.70
2007,03,19,03,16,9.70
2007,03,19,03,17,9.70
2007,03,19,03,18,9.70
2007,03,19,03,19,9.70
2007,03,19,03,20,9.70
2007,03,19,03,21,9.70
2007,03,19,03,22,9.70
2007,03,19,03,23,9.80
2007,03,19,03,24,9.80
2007,03,19,03,25,9.70
2007,03,19,03,26,9.70
2007,03,19,03,27,9.70
2007,03,19,03,28,9.70
2007,03,19,03,29,9.70
2007,03,19,03,30,9.70
2007,03,19,03,31,9.70
2007,03,19,03,32,9.70
2007,03,19,03,33,9.70
2007,03,19,03,34,9.70
2007,03,19,03,35,9.70
2007,03,19,03,36,9.60
2007,03,19,03,37,9.60
2007,03,19,03,38,9.60
2007,03,19,03,39,9.60
2007,03,19,03,40,9.60
2007,03,19,03,41,9.60
2007,03,19,03,42,9.60
2007,03,19,03,43,9.60
2007,03,19,03,44,9.60
2007,03,19,03,45,9.50
2007,03,19,03,46,9.50
2007,03,19,03,47,9.50
2007,03,19,03,48,9.50
2007,03,19,03,49,9.50
2007,03,19,03,50,9.50
2007,03,19,03,51,9.50
2007,03,19,03,52,9.50
2007,03,19,03,53,9.50
2007,03,19,03,54,9.50
2007,03,19,03,55,9.50
2007,03,19,03,56,9.50
2007,03,19,03,57,9.50
2007,03,19,03,58,9.50
2007,03,19,03,59,9.50
2007,03,19,04,00,9.50
2007,03,19,04,01,9.50
2007,03,19,04,02,9.50
2007,03,19,04,03,9.50
2007,03,19,04,04,9.50
2007,03,19,04,05,9.50
2007,03,19,04,06,9.50
2007,03,19,04,07,9.50
2007,03,19,04,08,9.50
2007,03,19,04,09,9.50
2007,03,19,04,10,9.50
2007,03,19,04,11,9.50
2007,03,19,04,12,9.40
2007,03,19,04,13,9.40
2007,03,19,04,14,9.40
2007,03,19,04,15,9.40
2007,03,19,04,16,9.40
2007,03,19,04,17,9.40
2007,03,19,04,18,9.40
2007,03,19,04,19,9.50
2007,03,19,04,20,9.50
2007,03,19,04,21,9.50
2007,03,19,04,22,9.50
2007,03,19,04,23,9.50
2007,03,19,04,24,9.50
2007,03,19,04,25,9.50
2007,03,19,04,26,9.50
2007,03,19,04,27,9.50
2007,03,19,04,28,9.50
2007,03,19,04,29,9.50
2007,03,19,04,30,9.50
2007,03,19,04,31,9.50
2007,03,19,04,32,9.50
2007,03,19,04,33,9.50
2007,03,19,04,34,9.50
2007,03,19,04,35,9.50
2007,03,19,04,36,9.50
2007,03,19,04,37,9.50
2007,03,19,04,38,9.50
2007,03,19,04,39,9.50
2007,03,19,04,40,9.50
2007,03,19,04,41,9.60
2007,03,19,04,42,9.70
2007,03,19,04,43,9.70
2007,03,19,04,44,9.70
2007,03,19,04,45,9.70
2007,03,19,04,46,9.80
2007,03,19,04,47,9.70
2007,03,19,04,48,9.70
2007,03,19,04,49,9.70
2007,03,19,04,50,9.70
2007,03,19,04,51,9.70
2007,03,19,04,52,9.70
2007,03,19,04,53,9.70
2007,03,19,04,54,9.70
2007,03,19,04,55,9.70
2007,03,19,04,56,9.60
2007,03,19,04,57,9.60
2007,03,19,04,58,9.60
2007,03,19,04,59,9.60
2007,03,19,05,00,9.50
2007,03,19,05,01,9.50
2007,03,19,05,02,9.50
2007,03,19,05,03,9.50
2007,03,19,05,04,9.50
2007,03,19,05,05,9.50
2007,03,19,05,06,9.40
2007,03,19,05,07,9.40
2007,03,19,05,08,9.40
2007,03,19,05,09,9.40
2007,03,19,05,10,9.40
2007,03,19,05,11,9.40
2007,03,19,05,12,9.30
2007,03,19,05,13,9.30
2007,03,19,05,14,9.30
2007,03,19,05,15,9.30
2007,03,19,05,16,9.30
2007,03,19,05,17,9.30
2007,03,19,05,18,9.30
2007,03,19,05,19,9.20
2007,03,19,05,20,9.20
2007,03,19,05,21,9.20
2007,03,19,05,22,9.20
2007,03,19,05,23,9.20
2007,03,19,05,24,9.20
2007,03,19,05,25,9.20
2007,03,19,05,26,9.20
2007,03,19,05,27,9.20
2007,03,19,05,28,9.20
2007,03,19,05,29,9.20
2007,03,19,05,30,9.10
2007,03,19,05,31,9.10
2007,03,19,05,32,9.10
2007,03,19,05,33,9.10
2007,03,19,05,34,9.10
2007,03,19,05,35,9.10
2007,03,19,05,36,9.10
2007,03,19,05,37,9.10
2007,03,19,05,38,9.00
2007,03,19,05,39,9.00
2007,03,19,05,40,9.00
2007,03,19,05,41,9.00
2007,03,19,05,42,9.00
2007,03,19,05,43,9.00
2007,03,19,05,44,9.00
2007,03,19,05,45,9.00
2007,03,19,05,46,8.90
2007,03,19,05,47,8.90
2007,03,19,05,48,8.90
2007,03,19,05,49,8.90
2007,03,19,05,50,8.90
2007,03,19,05,51,8.90
2007,03,19,05,52,8.90
2007,03,19,05,53,8.80
2007,03,19,05,54,8.80
2007,03,19,05,55,8.80
2007,03,19,05,56,8.80
2007,03,19,05,57,8.80
2007,03,19,05,58,8.70
2007,03,19,05,59,8.70
2007,03,19,06,00,8.70
2007,03,19,06,01,8.70
2007,03,19,06,02,8.70
2007,03,19,06,03,8.70
2007,03,19,06,04,8.70
2007,03,19,06,05,8.70
2007,03,19,06,06,8.70
2007,03,19,06,07,8.70
2007,03,19,06,08,8.70
2007,03,19,06,09,8.70
2007,03,19,06,10,8.60
2007,03,19,06,11,8.60
2007,03,19,06,12,8.60
2007,03,19,06,13,8.60
2007,03,19,06,14,8.60
2007,03,19,06,15,8.60
2007,03,19,06,16,8.60
2007,03,19,06,17,8.60
2007,03,19,06,18,8.60
2007,03,19,06,19,8.60
2007,03,19,06,20,8.60
2007,03,19,06,21,8.50
2007,03,19,06,22,8.50
2007,03,19,06,23,8.50
2007,03,19,06,24,8.50
2007,03,19,06,25,8.50
2007,03,19,06,26,8.50
2007,03,19,06,27,8.50
2007,03,19,06,28,8.50
2007,03,19,06,29,8.50
2007,03,19,06,30,8.50
2007,03,19,06,31,8.50
2007,03,19,06,32,8.50
2007,03,19,06,33,8.50
2007,03,19,06,34,8.50
2007,03,19,06,35,8.50
2007,03,19,06,36,8.50
2007,03,19,06,37,8.50
2007,03,19,06,38,8.50
2007,03,19,06,39,8.50
2007,03,19,06,40,8.50
2007,03,19,06,41,8.50
2007,03,19,06,42,8.40
2007,03,19,06,43,8.40
2007,03,19,06,44,8.40
2007,03,19,06,45,8.40
2007,03,19,06,46,8.40
2007,03,19,06,47,8.40
2007,03,19,06,48,8.40
2007,03,19,06,49,8.40
2007,03,19,06,50,8.40
2007,03,19,06,51,8.40
2007,03,19,06,52,8.40
2007,03,19,06,53,8.40
2007,03,19,06,54,8.40
2007,03,19,06,55,8.40
2007,03,19,06,56,8.50
2007,03,19,06,57,8.50
2007,03,19,06,58,8.50
2007,03,19,06,59,8.50
2007,03,19,07,00,8.50
2007,03,19,07,01,8.50
2007,03,19,07,02,8.50
2007,03,19,07,03,8.50
2007,03,19,07,04,8.50
2007,03,19,07,05,8.50
2007,03,19,07,06,8.50
2007,03,19,07,07,8.50
2007,03,19,07,08,8.50
2007,03,19,07,09,8.50
2007,03,19,07,10,8.50
2007,03,19,07,11,8.50
2007,03,19,07,12,8.50
2007,03,19,07,13,8.50
2007,03,19,07,14,8.50
2007,03,19,07,15,8.50
2007,03,19,07,16,8.50
2007,03,19,07,17,8.50
2007,03,19,07,18,8.50
2007,03,19,07,19,8.50
2007,03,19,07,20,8.50
2007,03,19,07,21,8.50
2007,03,19,07,22,8.50
2007,03,19,07,23,8.60
2007,03,19,07,24,8.60
2007,03,19,07,25,8.60
2007,03,19,07,26,8.60
2007,03,19,07,27,8.60
2007,03,19,07,28,8.60
2007,03,19,07,29,8.60
2007,03,19,07,30,8.60
2007,03,19,07,31,8.60
2007,03,19,07,32,8.70
2007,03,19,07,33,8.70
2007,03,19,07,34,8.60
2007,03,19,07,35,8.60
2007,03,19,07,36,8.60
2007,03,19,07,37,8.60
2007,03,19,07,38,8.60
2007,03,19,07,39,8.60
2007,03,19,07,40,8.60
2007,03,19,07,41,8.60
2007,03,19,07,42,8.60
2007,03,19,07,43,8.60
2007,03,19,07,44,8.60
2007,03,19,07,45,8.60
2007,03,19,07,46,8.60
2007,03,19,07,47,8.60
2007,03,19,07,48,8.60
2007,03,19,07,49,8.60
2007,03,19,07,50,8.50
2007,03,19,07,51,8.50
2007,03,19,07,52,8.50
2007,03,19,07,53,8.50
2007,03,19,07,54,8.50
2007,03,19,07,55,8.50
2007,03,19,07,56,8.50
2007,03,19,07,57,8.50
2007,03,19,07,58,8.50
2007,03,19,07,59,8.50
2007,03,19,08,00,8.50
2007,03,19,08,01,8.50
2007,03,19,08,02,8.50
2007,03,19,08,03,8.50
2007,03,19,08,04,8.50
2007,03,19,08,05,8.40
2007,03,19,08,06,8.40
2007,03,19,08,07,8.40
2007,03,19,08,08,8.40
2007,03,19,08,09,8.40
2007,03,19,08,10,8.40
2007,03,19,08,11,8.40
2007,03,19,08,12,8.40
2007,03,19,08,13,8.40
2007,03,19,08,14,8.40
2007,03,19,08,15,8.40
2007,03,19,08,16,8.40
2007,03,19,08,17,8.40
2007,03,19,08,18,8.40
2007,03,19,08,19,8.40
2007,03,19,08,20,8.40
2007,03,19,08,21,8.40
2007,03,19,08,22,8.40
2007,03,19,08,23,8.40
2007,03,19,08,24,8.50
2007,03,19,08,25,8.50
2007,03,19,08,26,8.50
2007,03,19,08,27,8.50
2007,03,19,08,28,8.50
2007,03,19,08,29,8.50
2007,03,19,08,30,8.50
2007,03,19,08,31,8.50
2007,03,19,08,32,8.50
2007,03,19,08,33,8.50
2007,03,19,08,34,8.50
2007,03,19,08,35,8.50
2007,03,19,08,36,8.50
2007,03,19,08,37,8.50
2007,03,19,08,38,8.50
2007,03,19,08,39,8.50
2007,03,19,08,40,8.50
2007,03,19,08,41,8.50
2007,03,19,08,42,8.50
2007,03,19,08,43,8.50
2007,03,19,08,44,8.50
2007,03,19,08,45,8.50
2007,03,19,08,46,8.50
2007,03,19,08,47,8.50
2007,03,19,08,48,8.50
2007,03,19,08,49,8.50
2007,03,19,08,50,8.50
2007,03,19,08,51,8.50
2007,03,19,08,52,8.50
2007,03,19,08,53,8.50
2007,03,19,08,54,8.50
2007,03,19,08,55,8.50
2007,03,19,08,56,8.50
2007,03,19,08,57,8.60
2007,03,19,08,58,8.60
2007,03,19,08,59,8.60
2007,03,19,09,00,8.60
2007,03,19,09,01,8.60
2007,03,19,09,02,8.60
2007,03,19,09,03,8.60
2007,03,19,09,04,8.60
2007,03,19,09,05,8.60
2007,03,19,09,06,8.60
2007,03,19,09,07,8.60
2007,03,19,09,08,8.60
2007,03,19,09,09,8.60
2007,03,19,09,10,8.60
2007,03,19,09,11,8.60
2007,03,19,09,12,8.60
2007,03,19,09,13,8.60
2007,03,19,09,14,8.60
2007,03,19,09,15,8.60
2007,03,19,09,16,8.60
2007,03,19,09,17,8.60
2007,03,19,09,18,8.60
2007,03,19,09,19,8.60
2007,03,19,09,20,8.60
2007,03,19,09,21,8.60
2007,03,19,09,22,8.60
2007,03,19,09,23,8.60
2007,03,19,09,24,8.60
2007,03,19,09,25,8.60
2007,03,19,09,26,8.60
2007,03,19,09,27,8.60
2007,03,19,09,28,8.60
2007,03,19,09,29,8.70
2007,03,19,09,30,8.70
2007,03,19,09,31,8.70
2007,03,19,09,32,8.70
2007,03,19,09,33,8.70
2007,03,19,09,34,8.70
2007,03,19,09,35,8.70
2007,03,19,09,36,8.70
2007,03,19,09,37,8.70
2007,03,19,09,38,8.70
2007,03,19,09,39,8.70
2007,03,19,09,40,8.70
2007,03,19,09,41,8.70
2007,03,19,09,42,8.70
2007,03,19,09,43,8.70
2007,03,19,09,44,8.70
2007,03,19,09,45,8.70
2007,03,19,09,46,8.70
2007,03,19,09,47,8.70
2007,03,19,09,48,8.70
2007,03,19,09,49,8.70
2007,03,19,09,50,8.70
2007,03,19,09,51,8.70
2007,03,19,09,52,8.70
2007,03,19,09,53,8.70
2007,03,19,09,54,8.70
2007,03,19,09,55,8.70
2007,03,19,09,56,8.70
2007,03,19,09,57,8.70
2007,03,19,09,58,8.70
2007,03,19,09,59,8.70
2007,03,19,10,00,8.70
2007,03,19,10,01,8.70
2007,03,19,10,02,8.70
2007,03,19,10,03,8.70
2007,03,19,10,04,8.70
2007,03,19,10,05,8.70
2007,03,19,10,06,8.70
2007,03,19,10,07,8.70
2007,03,19,10,08,8.70
2007,03,19,10,09,8.70
2007,03,19,10,10,8.70
2007,03,19,10,11,8.70
2007,03,19,10,12,8.70
2007,03,19,10,13,8.70
2007,03,19,10,14,8.70
2007,03,19,10,15,8.70
2007,03,19,10,16,8.70
2007,03,19,10,17,8.70
2007,03,19,10,18,8.70
2007,03,19,10,19,8.70
2007,03,19,10,20,8.70
2007,03,19,10,21,8.70
2007,03,19,10,22,8.70
2007,03,19,10,23,8.70
2007,03,19,10,24,8.70
2007,03,19,10,25,8.70
2007,03,19,10,26,8.70
2007,03,19,10,27,8.70
2007,03,19,10,28,8.70
2007,03,19,10,29,8.70
2007,03,19,10,30,8.70
2007,03,19,10,31,8.70
2007,03,19,10,32,8.70
2007,03,19,10,33,8.70
2007,03,19,10,34,8.70
2007,03,19,10,35,8.70
2007,03,19,10,36,8.80
2007,03,19,10,37,8.80
2007,03,19,10,38,8.80
2007,03,19,10,39,8.80
2007,03,19,10,40,8.90
2007,03,19,10,41,8.90
2007,03,19,10,42,8.90
2007,03,19,10,43,8.90
2007,03,19,10,44,9.00
2007,03,19,10,45,9.00
2007,03,19,10,46,9.00
2007,03,19,10,47,9.00
2007,03,19,10,48,9.00
2007,03,19,10,49,9.10
2007,03,19,10,50,9.10
2007,03,19,10,51,9.10
2007,03,19,10,52,9.10
2007,03,19,10,53,9.20
2007,03,19,10,54,9.20
2007,03,19,10,55,9.20
2007,03,19,10,56,9.20
2007,03,19,10,57,9.20
2007,03,19,10,58,9.20
2007,03,19,10,59,9.20
2007,03,19,11,00,9.20
2007,03,19,11,01,9.20
2007,03,19,11,02,9.20
2007,03,19,11,03,9.20
2007,03,19,11,04,9.20
2007,03,19,11,05,9.10
2007,03,19,11,06,9.10
2007,03,19,11,07,9.10
2007,03,19,11,08,9.10
2007,03,19,11,09,9.10
2007,03,19,11,10,9.10
2007,03,19,11,11,9.00
2007,03,19,11,12,9.00
2007,03,19,11,13,9.00
2007,03,19,11,14,9.00
2007,03,19,11,15,9.00
2007,03,19,11,16,9.00
2007,03,19,11,17,9.00
2007,03,19,11,18,9.00
2007,03,19,11,19,9.00
2007,03,19,11,20,9.00
2007,03,19,11,21,9.00
2007,03,19,11,22,9.00
2007,03,19,11,23,9.00
2007,03,19,11,24,9.10
2007,03,19,11,25,9.10
2007,03,19,11,26,9.10
2007,03,19,11,27,9.20
2007,03,19,11,28,9.20
2007,03,19,11,29,9.20
2007,03,19,11,30,9.20
2007,03,19,11,31,9.20
2007,03,19,11,32,9.20
2007,03,19,11,33,9.20
2007,03,19,11,34,9.30
2007,03,19,11,35,9.30
2007,03,19,11,36,9.40
2007,03,19,11,37,9.40
2007,03,19,11,38,9.40
2007,03,19,11,39,9.40
2007,03,19,11,40,9.40
2007,03,19,11,41,9.50
2007,03,19,11,42,9.50
2007,03,19,11,43,9.60
2007,03,19,11,44,9.60
2007,03,19,11,45,9.70
2007,03,19,11,46,9.70
2007,03,19,11,47,9.70
2007,03,19,11,48,9.80
2007,03,19,11,49,9.90
2007,03,19,11,50,9.90
2007,03,19,11,51,9.90
2007,03,19,11,52,10.00
2007,03,19,11,53,10.10
2007,03,19,11,54,10.10
2007,03,19,11,55,10.10
2007,03,19,11,56,10.20
2007,03,19,11,57,10.20
2007,03,19,11,58,10.30
2007,03,19,11,59,10.40
2007,03,19,12,00,10.40
2007,03,19,12,01,10.50
2007,03,19,12,02,10.60
2007,03,19,12,03,10.60
2007,03,19,12,04,10.60
2007,03,19,12,05,10.70
2007,03,19,12,06,10.70
2007,03,19,12,07,10.70
2007,03,19,12,08,10.70
2007,03,19,12,09,10.70
2007,03,19,12,10,10.70
2007,03,19,12,11,10.70
2007,03,19,12,12,10.70
2007,03,19,12,13,10.80
2007,03,19,12,14,10.80
2007,03,19,12,15,10.80
2007,03,19,12,16,10.80
2007,03,19,12,17,10.80
2007,03,19,12,18,10.90
2007,03,19,12,19,10.90
2007,03,19,12,20,10.90
2007,03,19,12,21,11.00
2007,03,19,12,22,11.10
2007,03,19,12,23,11.10
2007,03,19,12,24,11.10
2007,03,19,12,25,11.10
2007,03,19,12,26,11.10
2007,03,19,12,27,11.10
2007,03,19,12,28,11.20
2007,03,19,12,29,11.20
2007,03,19,12,30,11.20
2007,03,19,12,31,11.30
2007,03,19,12,32,11.20
2007,03,19,12,33,11.30
2007,03,19,12,34,11.30
2007,03,19,12,35,11.30
2007,03,19,12,36,11.40
2007,03,19,12,37,11.40
2007,03,19,12,38,11.40
2007,03,19,12,39,11.40
2007,03,19,12,40,11.40
2007,03,19,12,41,11.40
2007,03,19,12,42,11.50
2007,03,19,12,43,11.60
2007,03,19,12,44,11.60
2007,03,19,12,45,11.60
2007,03,19,12,46,11.60
2007,03,19,12,47,11.60
2007,03,19,12,48,11.60
2007,03,19,12,49,11.60
2007,03,19,12,50,11.60
2007,03,19,12,51,11.60
2007,03,19,12,52,11.70
2007,03,19,12,53,11.70
2007,03,19,12,54,11.70
2007,03,19,12,55,11.70
2007,03,19,12,56,11.80
2007,03,19,12,57,11.80
2007,03,19,12,58,11.80
2007,03,19,12,59,11.80
2007,03,19,13,00,11.80
2007,03,19,13,01,11.80
2007,03,19,13,02,11.80
2007,03,19,13,03,11.90
2007,03,19,13,04,11.90
2007,03,19,13,05,12.00
2007,03,19,13,06,12.00
2007,03,19,13,07,12.10
2007,03,19,13,08,12.20
2007,03,19,13,09,12.10
2007,03,19,13,10,12.20
2007,03,19,13,11,12.20
2007,03,19,13,12,12.20
2007,03,19,13,13,12.10
2007,03,19,13,14,12.10
2007,03,19,13,15,12.10
2007,03,19,13,16,12.10
2007,03,19,13,17,12.10
2007,03,19,13,18,12.00
2007,03,19,13,19,12.10
2007,03,19,13,20,12.10
2007,03,19,13,21,12.10
2007,03,19,13,22,12.20
2007,03,19,13,23,12.20
2007,03,19,13,24,12.20
2007,03,19,13,25,12.20
2007,03,19,13,26,12.20
2007,03,19,13,27,12.30
2007,03,19,13,28,12.20
2007,03,19,13,29,12.30
2007,03,19,13,30,12.30
2007,03,19,13,31,12.30
2007,03,19,13,32,12.30
2007,03,19,13,33,12.20
2007,03,19,13,34,12.20
2007,03,19,13,35,12.20
2007,03,19,13,36,12.10
2007,03,19,13,37,12.10
2007,03,19,13,38,12.10
2007,03,19,13,39,12.00
2007,03,19,13,40,12.00
2007,03,19,13,41,12.00
2007,03,19,13,42,12.00
2007,03,19,13,43,12.00
2007,03,19,13,44,12.00
2007,03,19,13,45,12.00
2007,03,19,13,46,11.90
2007,03,19,13,47,11.90
2007,03,19,13,48,12.00
2007,03,19,13,49,12.00
2007,03,19,13,50,12.00
2007,03,19,13,51,12.10
2007,03,19,13,52,12.10
2007,03,19,13,53,12.20
2007,03,19,13,54,12.30
2007,03,19,13,55,12.30
2007,03,19,13,56,12.40
2007,03,19,13,57,12.40
2007,03,19,13,58,12.40
2007,03,19,13,59,12.40
2007,03,19,14,00,12.50
2007,03,19,14,01,12.50
2007,03,19,14,02,12.50
2007,03,19,14,03,12.60
2007,03,19,14,04,12.60
2007,03,19,14,05,12.70
2007,03,19,14,06,12.70
2007,03,19,14,07,12.70
2007,03,19,14,08,12.80
2007,03,19,14,09,12.80
2007,03,19,14,10,12.80
2007,03,19,14,11,12.80
2007,03,19,14,12,12.80
2007,03,19,14,13,12.80
2007,03,19,14,14,12.80
2007,03,19,14,15,12.80
2007,03,19,14,16,12.80
2007,03,19,14,17,12.80
2007,03,19,14,18,12.80
2007,03,19,14,19,12.80
2007,03,19,14,20,12.80
2007,03,19,14,21,12.70
2007,03,19,14,22,12.70
2007,03,19,14,23,12.70
2007,03,19,14,24,12.70
2007,03,19,14,25,12.60
2007,03,19,14,26,12.60
2007,03,19,14,27,12.60
2007,03,19,14,28,12.60
2007,03,19,14,29,12.50
2007,03,19,14,30,12.50
2007,03,19,14,31,12.50
2007,03,19,14,32,12.40
2007,03,19,14,33,12.40
2007,03,19,14,34,12.40
2007,03,19,14,35,12.40
2007,03,19,14,36,12.40
2007,03,19,14,37,12.40
2007,03,19,14,38,12.40
2007,03,19,14,39,12.40
2007,03,19,14,40,12.40
2007,03,19,14,41,12.50
2007,03,19,14,42,12.50
2007,03,19,14,43,12.60
2007,03,19,14,44,12.70
2007,03,19,14,45,12.80
2007,03,19,14,46,12.90
2007,03,19,14,47,12.90
2007,03,19,14,48,12.90
2007,03,19,14,49,12.80
2007,03,19,14,50,12.80
2007,03,19,14,51,12.80
2007,03,19,14,52,12.80
2007,03,19,14,53,12.80
2007,03,19,14,54,12.80
2007,03,19,14,55,12.80
2007,03,19,14,56,12.80
2007,03,19,14,57,12.90
2007,03,19,14,58,12.90
2007,03,19,14,59,13.00
2007,03,19,15,00,13.20
2007,03,19,15,01,13.30
2007,03,19,15,02,13.40
2007,03,19,15,03,13.40
2007,03,19,15,04,13.40
2007,03,19,15,05,13.30
2007,03,19,15,06,13.30
2007,03,19,15,07,13.30
2007,03,19,15,08,13.30
2007,03,19,15,09,13.30
2007,03,19,15,10,13.40
2007,03,19,15,11,13.40
2007,03,19,15,12,13.40
2007,03,19,15,13,13.40
2007,03,19,15,14,13.30
2007,03,19,15,15,13.30
2007,03,19,15,16,13.30
2007,03,19,15,17,13.30
2007,03,19,15,18,13.30
2007,03,19,15,19,13.30
2007,03,19,15,20,13.30
2007,03,19,15,21,13.30
2007,03,19,15,22,13.30
2007,03,19,15,23,13.30
2007,03,19,15,24,13.20
2007,03,19,15,25,13.20
2007,03,19,15,26,13.20
2007,03,19,15,27,13.20
2007,03,19,15,28,13.10
2007,03,19,15,29,13.10
2007,03,19,15,30,13.20
2007,03,19,15,31,13.20
2007,03,19,15,32,13.10
2007,03,19,15,33,13.10
2007,03,19,15,34,13.10
2007,03,19,15,35,13.00
2007,03,19,15,36,12.90
2007,03,19,15,37,12.90
2007,03,19,15,38,12.80
2007,03,19,15,39,12.80
2007,03,19,15,40,12.80
2007,03,19,15,41,12.80
2007,03,19,15,42,12.80
2007,03,19,15,43,12.90
2007,03,19,15,44,12.90
2007,03,19,15,45,13.00
2007,03,19,15,46,13.00
2007,03,19,15,47,13.10
2007,03,19,15,48,13.20
2007,03,19,15,49,13.30
2007,03,19,15,50,13.30
2007,03,19,15,51,13.30
2007,03,19,15,52,13.30
2007,03,19,15,53,13.30
2007,03,19,15,54,13.30
2007,03,19,15,55,13.30
2007,03,19,15,56,13.30
2007,03,19,15,57,13.30
2007,03,19,15,58,13.20
2007,03,19,15,59,13.10
2007,03,19,16,00,13.00
2007,03,19,16,01,12.90
2007,03,19,16,02,12.80
2007,03,19,16,03,12.80
2007,03,19,16,04,12.80
2007,03,19,16,05,12.80
2007,03,19,16,06,12.70
2007,03,19,16,07,12.80
2007,03,19,16,08,12.80
2007,03,19,16,09,12.80
2007,03,19,16,10,12.80
2007,03,19,16,11,12.90
2007,03,19,16,12,12.90
2007,03,19,16,13,12.90
2007,03,19,16,14,12.90
2007,03,19,16,15,12.90
2007,03,19,16,16,12.90
2007,03,19,16,17,13.00
2007,03,19,16,18,13.00
2007,03,19,16,19,13.10
2007,03,19,16,20,13.10
2007,03,19,16,21,13.20
2007,03,19,16,22,13.20
2007,03,19,16,23,13.20
2007,03,19,16,24,13.20
2007,03,19,16,25,13.20
2007,03,19,16,26,13.20
2007,03,19,16,27,13.30
2007,03,19,16,28,13.30
2007,03,19,16,29,13.30
2007,03,19,16,30,13.30
2007,03,19,16,31,13.30
2007,03,19,16,32,13.30
2007,03,19,16,33,13.30
2007,03,19,16,34,13.30
2007,03,19,16,35,13.30
2007,03,19,16,36,13.30
2007,03,19,16,37,13.20
2007,03,19,16,38,13.20
2007,03,19,16,39,13.10
2007,03,19,16,40,13.10
2007,03,19,16,41,13.10
2007,03,19,16,42,13.10
2007,03,19,16,43,13.10
2007,03,19,16,44,13.20
2007,03,19,16,45,13.20
2007,03,19,16,46,13.20
2007,03,19,16,47,13.20
2007,03,19,16,48,13.20
2007,03,19,16,49,13.30
2007,03,19,16,50,13.30
2007,03,19,16,51,13.30
2007,03,19,16,52,13.40
2007,03,19,16,53,13.40
2007,03,19,16,54,13.40
2007,03,19,16,55,13.30
2007,03,19,16,56,13.30
2007,03,19,16,57,13.20
2007,03,19,16,58,13.10
2007,03,19,16,59,13.10
2007,03,19,17,00,13.20
2007,03,19,17,01,13.20
2007,03,19,17,02,13.30
2007,03,19,17,03,13.30
2007,03,19,17,04,13.30
2007,03,19,17,05,13.30
2007,03,19,17,06,13.30
2007,03,19,17,07,13.40
2007,03,19,17,08,13.40
2007,03,19,17,09,13.40
2007,03,19,17,10,13.30
2007,03,19,17,11,13.30
2007,03,19,17,12,13.30
2007,03,19,17,13,13.30
2007,03,19,17,14,13.40
2007,03,19,17,15,13.50
2007,03,19,17,16,13.60
2007,03,19,17,17,13.70
2007,03,19,17,18,13.70
2007,03,19,17,19,13.60
2007,03,19,17,20,13.60
2007,03,19,17,21,13.50
2007,03,19,17,22,13.30
2007,03,19,17,23,13.20
2007,03,19,17,24,13.10
2007,03,19,17,25,13.00
2007,03,19,17,26,12.90
2007,03,19,17,27,12.80
2007,03,19,17,28,12.80
2007,03,19,17,29,12.70
2007,03,19,17,30,12.60
2007,03,19,17,31,12.50
2007,03,19,17,32,12.30
2007,03,19,17,33,12.30
2007,03,19,17,34,12.20
2007,03,19,17,35,12.00
2007,03,19,17,36,12.00
2007,03,19,17,37,11.90
2007,03,19,17,38,11.90
2007,03,19,17,39,11.90
2007,03,19,17,40,11.90
2007,03,19,17,41,12.00
2007,03,19,17,42,12.00
2007,03,19,17,43,12.00